www.pogodaiklimat.ru

Погода и климат >> Архив погоды >> Норвегия >> Дивидален


ПОГОДА в Дивидалене

  • Прогноз погоды в Дивидалене
  • Монитор погоды в Дивидалене

АРХИВ ПОГОДЫ в Дивидалене

Время (UTC), дата Ветер
(напр.,м/с)
 
Видим.   Явления Облачность Т
(С)
Тd
(С)
f
(%)
Тe
(С)
Тes
(С)
Комфортность P
(гПа)
Po
(гПа)
Тmin
(С)
Tmax
(С)
R
(мм)
R24
(мм)
S
(см)
13 18.06 н/о н/о +13.1 +4.5 56 1007.5 983.4
14 18.06 н/о н/о +14.2 +5.6 56 1007.1 983.1
15 18.06 н/о н/о +15.0 +3.8 47 1006.7 982.8
16 18.06 н/о н/о +13.1 +4.5 56 1006.9 982.8
17 18.06 н/о н/о +11.3 +6.5 72 1007.2 983.0
18 18.06 н/о н/о +10.1 +7.5 84 1007.5 983.2 +10.1 +15.7
19 18.06 н/о н/о +9.2 +7.2 87 1007.9 983.5
20 18.06 н/о н/о +8.7 +7.3 91 1008.0 983.5 0.6
21 18.06 н/о н/о +8.5 +7.3 92 1008.2 983.7 0.1
22 18.06 н/о н/о +8.1 +7.0 93 1007.9 983.4 0.1
23 18.06 н/о н/о +7.8 +6.7 93 1008.1 983.5
00 19.06 н/о н/о +7.4 +6.4 93 1008.1 983.5
01 19.06 н/о н/о +7.4 +6.4 93 1008.1 983.5
02 19.06 н/о н/о +7.6 +6.5 93 1008.0 983.4
03 19.06 н/о н/о +8.2 +7.0 92 1008.1 983.6
04 19.06 н/о н/о +8.0 +6.3 89 1008.0 983.5
05 19.06 н/о н/о +8.3 +6.3 87 1008.1 983.6
06 19.06 н/о н/о +9.7 +5.5 75 1007.9 983.5 +7.3 +10.1 0.8
07 19.06 н/о н/о +10.6 +6.2 74 1008.1 983.8
08 19.06 н/о н/о +10.1 +5.3 72 1008.4 984.0
09 19.06 н/о н/о +10.7 +5.7 71 1008.5 984.2
10 19.06 н/о н/о +11.6 +5.7 67 1008.6 984.4
11 19.06 н/о н/о +12.7 +6.3 65 1008.7 984.5
12 19.06 н/о н/о +14.0 +5.9 58 1008.9 984.8
13 19.06 н/о н/о +13.3 +6.4 63 1009.2 985.1
14 19.06 н/о н/о +12.8 +5.7 62 1009.7 985.5
15 19.06 н/о н/о +12.4 +7.1 70 1010.0 985.8 0.1
16 19.06 н/о н/о +13.1 +6.2 63 1010.2 986.0
17 19.06 н/о н/о +11.2 +6.8 74 1010.8 986.5
18 19.06 н/о н/о +10.1 +7.2 82 1011.3 986.9 +9.6 +15.0
19 19.06 н/о н/о +9.7 +7.5 86 1011.6 987.1
20 19.06 н/о н/о +9.6 +7.4 86 1012.1 987.6
21 19.06 н/о н/о +9.5 +7.6 88 1012.5 988.0
22 19.06 н/о н/о +8.9 +7.4 90 1012.7 988.1 0.1
23 19.06 н/о н/о +8.6 +7.1 90 1013.0 988.4
00 20.06 н/о н/о +7.5 +6.1 91 1013.3 988.6
01 20.06 н/о н/о +7.8 +6.6 92 1013.4 988.7
02 20.06 н/о н/о +8.1 +6.6 90 1013.7 989.0
03 20.06 н/о н/о +7.3 +5.6 89 1013.5 988.8
04 20.06 н/о н/о +8.5 +6.6 88 1013.2 988.6
05 20.06 н/о н/о +10.9 +6.7 75 1012.8 988.4
06 20.06 н/о н/о +14.2 +5.6 56 1012.2 988.1 +7.1 +14.2 0.1
07 20.06 н/о н/о +13.4 +5.1 57 1012.1 987.9
08 20.06 н/о н/о +14.2 +4.0 50 1011.9 987.8
09 20.06 н/о н/о +15.3 +3.8 46 1011.6 987.6
10 20.06 н/о н/о +16.0 +2.4 40 1011.3 987.4
11 20.06 н/о н/о +17.4 +1.4 34 1010.7 986.9
12 20.06 н/о н/о +18.3 +2.2 34 1010.3 986.6
14 20.06 н/о н/о +19.6 +2.1 31 1009.1 985.5
15 20.06 н/о н/о +18.3 +3.4 37 1008.6 984.9
16 20.06 н/о н/о +17.9 +3.4 38 1008.4 984.7
17 20.06 н/о н/о +17.5 +3.4 39 1008.0 984.3
18 20.06 н/о н/о +17.3 +4.3 42 1008.0 984.2
19 20.06 н/о н/о +16.3 +6.5 52 1008.5 984.6
20 20.06 н/о н/о +14.4 +6.8 60 1008.9 984.9
21 20.06 н/о н/о +13.0 +8.5 74 1009.0 984.9
22 20.06 н/о н/о +12.5 +8.8 78 1009.0 984.8
23 20.06 н/о н/о +12.3 +8.2 76 1008.7 984.5
00 21.06 н/о н/о +11.5 +8.2 80 1008.3 984.1
01 21.06 н/о н/о +11.9 +7.8 76 1007.9 983.7
02 21.06 н/о н/о +12.3 +7.6 73 1007.7 983.5
03 21.06 н/о н/о +11.6 +6.9 73 1007.5 983.3
04 21.06 н/о н/о +11.2 +7.7 79 1007.1 982.9
05 21.06 н/о н/о +11.9 +7.0 72 1006.6 982.4
06 21.06 н/о н/о +12.3 +7.4 72 1006.0 981.9 +11.0 +17.3
07 21.06 н/о н/о +12.2 +8.1 76 1005.6 981.5
08 21.06 н/о н/о +12.3 +8.2 76 1005.3 981.2
09 21.06 н/о н/о +12.3 +10.0 86 1005.1 981.0 0.4
10 21.06 н/о н/о +11.8 +9.7 87 1005.1 981.0 1
11 21.06 н/о н/о +12.2 +10.3 88 1004.6 980.5 0.2
12 21.06 н/о н/о +12.0 +10.6 91 1004.6 980.5 0.3
13 21.06 н/о н/о +11.8 +10.4 91 1004.7 980.6 0.8
14 21.06 н/о н/о +11.8 +10.4 91 1004.5 980.4 0.3
15 21.06 н/о н/о +11.8 +10.4 91 1004.4 980.3 2
16 21.06 н/о н/о +11.8 +10.4 91 1004.4 980.3 0.4
17 21.06 н/о н/о +11.8 +10.4 91 1004.5 980.4 0.1
18 21.06 н/о н/о +12.1 +10.7 91 1004.3 980.2 +11.6 +12.5 0.2
19 21.06 н/о н/о +11.5 +10.1 91 1004.3 980.2 0.3
20 21.06 н/о н/о +11.2 +9.8 91 1004.6 980.4 0.1
21 21.06 н/о н/о +10.7 +9.5 92 1004.7 980.5 0.1
22 21.06 н/о н/о +10.4 +9.2 92 1004.6 980.4 0.3
23 21.06 н/о н/о +10.2 +9.1 93 1004.6 980.3
00 22.06 н/о н/о +10.3 +9.4 94 1004.7 980.4
01 22.06 н/о н/о +10.4 +9.3 93 1004.7 980.4 0.4
02 22.06 н/о н/о +10.7 +9.8 94 1004.7 980.5
03 22.06 н/о н/о +10.3 +9.4 94 1004.9 980.6 0.1
04 22.06 н/о н/о +10.2 +9.3 94 1004.5 980.2 0.1
05 22.06 н/о н/о +10.4 +9.3 93 1004.3 980.1
06 22.06 н/о н/о +10.3 +9.2 93 1004.2 980.0 +9.9 +12.1 2
07 22.06 н/о н/о +10.5 +9.1 91 1004.2 980.0
08 22.06 н/о н/о +10.4 +8.7 89 1004.3 980.1
09 22.06 н/о н/о +10.2 +8.5 89 1004.5 980.2 1
10 22.06 н/о н/о +9.5 +8.0 90 1004.6 980.3 1
11 22.06 н/о н/о +9.3 +7.9 91 1005.1 980.7 2
12 22.06 н/о н/о +8.8 +7.6 92 1005.4 981.0 5
13 22.06 н/о н/о +8.6 +7.4 92 1005.7 981.3 4
14 22.06 н/о н/о +8.8 +7.4 91 1006.1 981.7 2
15 22.06 н/о н/о +8.9 +7.0 88 1006.4 982.0 1
16 22.06 н/о н/о +8.4 +6.2 86 1007.1 982.6 0.1
17 22.06 н/о н/о +8.2 +6.2 87 1007.3 982.8 0.1
18 22.06 н/о н/о +7.7 +5.2 84 1007.8 983.2 +7.7 +10.8
19 22.06 н/о н/о +7.6 +4.7 82 1008.2 983.6
20 22.06 н/о н/о +7.1 +5.3 88 1008.5 983.9
21 22.06 н/о н/о +7.1 +4.9 86 1008.7 984.1
22 22.06 н/о н/о +6.8 +5.3 90 1009.2 984.5
23 22.06 н/о н/о +7.2 +5.2 87 1009.4 984.8
00 23.06 н/о н/о +7.2 +5.2 87 1010.0 985.3
01 23.06 н/о н/о +6.7 +5.5 92 1010.6 985.9 0.5
02 23.06 н/о н/о +6.7 +5.7 93 1010.9 986.2 0.3
03 23.06 н/о н/о +7.0 +5.8 92 1011.3 986.6 0.4
04 23.06 н/о н/о +7.2 +6.0 92 1011.8 987.1 0.6
05 23.06 н/о н/о +7.7 +6.5 92 1012.4 987.7 0.3
06 23.06 н/о н/о +8.3 +6.4 88 1012.8 988.2 +6.7 +8.3 3
07 23.06 н/о н/о +8.8 +6.9 88 1013.5 988.9 0.4
08 23.06 н/о н/о +9.2 +7.2 87 1014.1 989.5 0.3
09 23.06 н/о н/о +9.5 +7.1 85 1014.7 990.1 0.3
10 23.06 н/о н/о +9.4 +6.7 83 1015.5 990.9 0.5
11 23.06 н/о н/о +9.6 +7.2 85 1016.1 991.5 0.3
12 23.06 н/о н/о +10.3 +7.4 82 1016.7 992.1 0.4
13 23.06 н/о н/о +10.4 +7.3 81 1017.2 992.6 0.3
14 23.06 н/о н/о +10.8 +7.7 81 1017.6 993.1 0.5
15 23.06 н/о н/о +11.0 +7.7 80 1017.8 993.3 0.1
16 23.06 н/о н/о +10.7 +8.1 84 1018.1 993.6
17 23.06 н/о н/о +10.6 +8.5 87 1018.4 993.8 0.6
18 23.06 н/о н/о +10.6 +8.5 87 1018.5 993.9 +8.3 +11.2
19 23.06 н/о н/о +10.6 +8.0 84 1018.8 994.2
20 23.06 н/о н/о +10.0 +8.3 89 1019.3 994.7
21 23.06 н/о н/о +9.7 +8.3 91 1020.0 995.3
22 23.06 н/о н/о +8.8 +7.4 91 1020.7 995.9
23 23.06 н/о н/о +7.7 +6.3 91 1021.3 996.4
00 24.06 н/о н/о +7.0 +5.8 92 1021.7 996.7
01 24.06 н/о н/о +7.1 +6.2 94 1021.9 996.9
02 24.06 н/о н/о +6.2 +5.2 93 1022.2 997.2
03 24.06 н/о н/о +6.4 +5.4 93 1022.6 997.6
04 24.06 н/о н/о +7.6 +6.4 92 1022.8 997.9
05 24.06 н/о н/о +8.6 +7.4 92 1022.8 998.0
06 24.06 н/о н/о +12.3 +7.0 70 1022.3 997.8 +6.1 +12.5
07 24.06 н/о н/о +13.3 +5.2 58 1022.4 998.0
08 24.06 н/о н/о +14.2 +5.1 54 1022.5 998.1 0.1
09 24.06 н/о н/о +13.6 +4.2 53 1022.8 998.4
10 24.06 н/о н/о +13.5 +3.0 49 1023.1 998.7
11 24.06 н/о н/о +13.0 +2.6 49 1023.5 999.0
12 24.06 н/о н/о +16.1 +1.4 37 1023.7 999.5
13 24.06 н/о н/о +15.8 +1.9 39 1023.9 999.6
14 24.06 н/о н/о +15.7 +2.2 40 1024.0 999.7
15 24.06 н/о н/о +14.3 +1.6 42 1024.4 1000.0
16 24.06 н/о н/о +14.3 +1.6 42 1024.4 1000.0
17 24.06 н/о н/о +12.4 +3.6 55 1024.8 1000.2
18 24.06 н/о н/о +10.4 +5.0 69 1025.0 1000.3 +10.4 +16.4
19 24.06 н/о н/о +10.1 +4.9 70 1025.0 1000.2
20 24.06 н/о н/о +9.5 +4.9 73 1025.2 1000.4
21 24.06 н/о н/о +8.7 +5.1 78 1025.7 1000.8
22 24.06 н/о н/о +7.9 +4.5 79 1026.1 1001.1
23 24.06 н/о н/о +7.5 +4.3 80 1026.0 1001.0
00 25.06 н/о н/о +7.2 +4.3 82 1025.9 1000.9
01 25.06 н/о н/о +7.1 +4.4 83 1025.8 1000.8
02 25.06 н/о н/о +7.2 +4.5 83 1025.6 1000.6
03 25.06 н/о н/о +7.3 +4.3 81 1025.2 1000.2
04 25.06 н/о н/о +7.1 +5.1 87 1024.9 999.9
05 25.06 н/о н/о +9.7 +3.7 66 1024.4 999.6
06 25.06 н/о н/о +10.8 +4.1 63 1024.0 999.3 +6.4 +11.2
07 25.06 н/о н/о +10.7 +4.0 63 1024.1 999.4
08 25.06 н/о н/о +11.6 +3.6 58 1023.8 999.2 0.1
09 25.06 н/о н/о +12.7 +2.3 49 1023.4 998.9
10 25.06 н/о н/о +13.0 +2.0 47 1023.5 999.0
11 25.06 н/о н/о +13.1 +2.1 47 1023.2 998.7
12 25.06 н/о н/о +13.2 +2.8 49 1023.3 998.8
13 25.06 н/о н/о +15.3 +2.2 41 1022.7 998.4

 

Местоположение метеостанции Дивидален (Норвегия): широта 68.78 долгота 19.70 высота над уровнем моря 204 м.

В архиве по умолчанию представлена погода в Дивидалене за последнюю неделю. Архивные данные за месяц целиком и за предыдущие месяцы, начиная с января 2011 года, Вы можете получить, выбрав интересующий диапазон дат из раскрывающегося списка и нажав кнопку "Ввод!".


*Определитесь, кто Вы:
робот инопланетянин человек

Внимание! Время в таблицах - всемирное. Для получения местного времени необходимо прибавить поправку, которая равна 1 ч.

Смотрите также архив погоды в соседних городах и на ближайших метеорологических станциях:

Погода в Килписйарви (Финляндия) (53 км)
Погода на Саане (Финляндия) (55 км)
Погода в Бардуфоссе (Норвегия) (56 км)
Погода в Абиску (Швеция) (60 км)
Погода в Шиботне (Норвегия) (71 км)
Погода в Каттерьяк аэропорту (Швеция) (74 км)
Погода в Каттерьяке (Швеция) (74 км)
Погода в Наймакке (Швеция) (75 км)
Погода в Ренсьоне (Швеция) (79 км)
Погода в Люнгене (Норвегия) (88 км)

Пояснения к столбцам:

Ветер - указаны скорость ветра в м/с - средняя за 10 мин, порывы в срок и между сроками (в фигурных скобках) и направление, откуда дует ветер: С - северный, СВ - северо-восточный, В - восточный, ЮВ - юго-восточный, Ю - южный, ЮЗ - юго-западный, З - западный, СЗ - северо-западный.
Видимость - горизонтальная дальность видимости в метрах или километрах. При видимости от 1 до 10 км при отсутствии осадков обычно наблюдается дымка, при ухудшении видимости до 1 км и менее - туман. В сухую погоду видимость может ухудшаться дымом, пылью или мглою.
Явления - указаны атмосферные явления, наблюдавшиеся в срок или в последний час перед сроком; фигурными скобками обозначены явления, наблюдавшиеся между сроками (за 1-3 часа до срока); квадратными скобками обозначены град или гололедные отложения с указанием их диаметра в мм.
Облачность - указаны через наклонную черту общая и нижняя облачность в баллах и высота нижней границы облаков в метрах; квадратными скобками обозначены формы облаков: Ci - перистые, Cs - перисто-слоистые, Cc - перисто-кучевые, Ac - высококучевые, As - высокослоистые, Sc - слоисто-кучевые, Ns - слоисто-дождевые, Cu - кучевые, Cb - кучево-дождевые. Подробнее классификацию облаков см. в Атласе облаков (PDF).
T - Температура воздуха - температура, измеренная на высоте 2 м над землей.
Td - Температура точки росы - температура, при понижении до которой содержащийся в воздухе водяной пар достигнет насыщения.
f - Относительная влажность воздуха - влажноcть воздуха, измеренная на высоте 2 м над землей.
Te - Эффективная температура - температура, которую ощущает одетый по сезону человек в тени. Характеристика душности погоды. При расчете учитывается влияние влажности воздуха и скорости ветра на теплоощущения человека.
Tes - Эффективная температура на солнце - температура, которую ощущает человек, с поправкой на солнечный нагрев. Характеристика знойности погоды. Зависит от высоты солнца над горизонтом, облачности и скорости ветра. Ночью, в пасмурную погоду, а также при ветре 12 м/с и более поправка равна нулю.
P - Атмосферное давление - приведенное к уровню моря атмосферное давление.
Po - Атмосферное давление - измеренное на уровне метеостанции атмосферное давление.
Tmin - Минимальная температура - минимум температуры воздуха на высоте 2 м над землей.
Tmax - Максимальная температура - максимум температуры воздуха на высоте 2 м над землей.
R - Количество осадков - Количество выпавших осадков за период времени, мм. При наведении курсора мыши на число - период времени, за который выпало указанное количество осадков.
R24 - Количество осадков - Количество выпавших осадков за 24 часа, мм.
S - Снежный покров - Высота снежного покрова, см. При наведении курсора мыши на число - состояние снежного покрова и степень покрытия местности в баллах.